Year,Month,Day,Hour,Minute,Value (Times are PST for temperature in C)
2016,07,10,00,00,12.90
2016,07,10,00,01,12.90
2016,07,10,00,02,12.90
2016,07,10,00,03,12.90
2016,07,10,00,04,12.90
2016,07,10,00,05,12.90
2016,07,10,00,06,12.90
2016,07,10,00,07,12.90
2016,07,10,00,08,12.90
2016,07,10,00,09,12.80
2016,07,10,00,10,12.80
2016,07,10,00,11,12.80
2016,07,10,00,12,12.80
2016,07,10,00,13,12.80
2016,07,10,00,14,12.80
2016,07,10,00,15,12.80
2016,07,10,00,16,12.80
2016,07,10,00,17,12.80
2016,07,10,00,18,12.80
2016,07,10,00,19,12.80
2016,07,10,00,20,12.80
2016,07,10,00,21,12.80
2016,07,10,00,22,12.80
2016,07,10,00,23,12.80
2016,07,10,00,24,12.80
2016,07,10,00,25,12.80
2016,07,10,00,26,12.80
2016,07,10,00,27,12.80
2016,07,10,00,28,12.80
2016,07,10,00,29,12.70
2016,07,10,00,30,12.70
2016,07,10,00,31,12.70
2016,07,10,00,32,12.70
2016,07,10,00,33,12.70
2016,07,10,00,34,12.70
2016,07,10,00,35,12.70
2016,07,10,00,36,12.70
2016,07,10,00,37,12.70
2016,07,10,00,38,12.70
2016,07,10,00,39,12.70
2016,07,10,00,40,12.70
2016,07,10,00,41,12.70
2016,07,10,00,42,12.70
2016,07,10,00,43,12.60
2016,07,10,00,44,12.60
2016,07,10,00,45,12.60
2016,07,10,00,46,12.60
2016,07,10,00,47,12.60
2016,07,10,00,48,12.60
2016,07,10,00,49,12.60
2016,07,10,00,50,12.60
2016,07,10,00,51,12.60
2016,07,10,00,52,12.60
2016,07,10,00,53,12.50
2016,07,10,00,54,12.50
2016,07,10,00,55,12.50
2016,07,10,00,56,12.50
2016,07,10,00,57,12.50
2016,07,10,00,58,12.50
2016,07,10,00,59,12.40
2016,07,10,01,00,12.40
2016,07,10,01,01,12.40
2016,07,10,01,02,12.40
2016,07,10,01,03,12.40
2016,07,10,01,04,12.40
2016,07,10,01,05,12.40
2016,07,10,01,06,12.40
2016,07,10,01,07,12.40
2016,07,10,01,08,12.30
2016,07,10,01,09,12.30
2016,07,10,01,10,12.30
2016,07,10,01,11,12.30
2016,07,10,01,12,12.30
2016,07,10,01,13,12.30
2016,07,10,01,14,12.30
2016,07,10,01,15,12.30
2016,07,10,01,16,12.30
2016,07,10,01,17,12.20
2016,07,10,01,18,12.20
2016,07,10,01,19,12.20
2016,07,10,01,20,12.20
2016,07,10,01,21,12.20
2016,07,10,01,22,12.20
2016,07,10,01,23,12.20
2016,07,10,01,24,12.20
2016,07,10,01,25,12.20
2016,07,10,01,26,12.10
2016,07,10,01,27,12.10
2016,07,10,01,28,12.10
2016,07,10,01,29,12.10
2016,07,10,01,30,12.10
2016,07,10,01,31,12.10
2016,07,10,01,32,12.10
2016,07,10,01,33,12.10
2016,07,10,01,34,12.10
2016,07,10,01,35,12.00
2016,07,10,01,36,12.00
2016,07,10,01,37,12.00
2016,07,10,01,38,12.00
2016,07,10,01,39,12.00
2016,07,10,01,40,12.00
2016,07,10,01,41,12.00
2016,07,10,01,42,12.00
2016,07,10,01,43,12.10
2016,07,10,01,44,12.10
2016,07,10,01,45,12.10
2016,07,10,01,46,12.10
2016,07,10,01,47,12.10
2016,07,10,01,48,12.10
2016,07,10,01,49,12.10
2016,07,10,01,50,12.10
2016,07,10,01,51,12.10
2016,07,10,01,52,12.10
2016,07,10,01,53,12.00
2016,07,10,01,54,12.00
2016,07,10,01,55,12.00
2016,07,10,01,56,12.00
2016,07,10,01,57,12.00
2016,07,10,01,58,12.00
2016,07,10,01,59,11.90
2016,07,10,02,00,11.90
2016,07,10,02,01,11.90
2016,07,10,02,02,11.90
2016,07,10,02,03,11.90
2016,07,10,02,04,11.90
2016,07,10,02,05,11.90
2016,07,10,02,06,11.90
2016,07,10,02,07,11.90
2016,07,10,02,08,11.90
2016,07,10,02,09,11.90
2016,07,10,02,10,11.90
2016,07,10,02,11,11.90
2016,07,10,02,12,11.90
2016,07,10,02,13,11.80
2016,07,10,02,14,11.80
2016,07,10,02,15,11.80
2016,07,10,02,16,11.80
2016,07,10,02,17,11.80
2016,07,10,02,18,11.80
2016,07,10,02,19,11.80
2016,07,10,02,20,11.80
2016,07,10,02,21,11.80
2016,07,10,02,22,11.80
2016,07,10,02,23,11.80
2016,07,10,02,24,11.80
2016,07,10,02,25,11.80
2016,07,10,02,26,11.80
2016,07,10,02,27,11.80
2016,07,10,02,28,11.80
2016,07,10,02,29,11.80
2016,07,10,02,30,11.80
2016,07,10,02,31,11.80
2016,07,10,02,32,11.80
2016,07,10,02,33,11.80
2016,07,10,02,34,11.80
2016,07,10,02,35,11.80
2016,07,10,02,36,11.70
2016,07,10,02,37,11.70
2016,07,10,02,38,11.70
2016,07,10,02,39,11.70
2016,07,10,02,40,11.70
2016,07,10,02,41,11.70
2016,07,10,02,42,11.70
2016,07,10,02,43,11.70
2016,07,10,02,44,11.70
2016,07,10,02,45,11.70
2016,07,10,02,46,11.70
2016,07,10,02,47,11.70
2016,07,10,02,48,11.70
2016,07,10,02,49,11.70
2016,07,10,02,50,11.70
2016,07,10,02,51,11.70
2016,07,10,02,52,11.70
2016,07,10,02,53,11.70
2016,07,10,02,54,11.70
2016,07,10,02,55,11.60
2016,07,10,02,56,11.60
2016,07,10,02,57,11.60
2016,07,10,02,58,11.60
2016,07,10,02,59,11.60
2016,07,10,03,00,11.60
2016,07,10,03,01,11.60
2016,07,10,03,02,11.60
2016,07,10,03,03,11.60
2016,07,10,03,04,11.60
2016,07,10,03,05,11.60
2016,07,10,03,06,11.60
2016,07,10,03,07,11.60
2016,07,10,03,08,11.60
2016,07,10,03,09,11.60
2016,07,10,03,10,11.60
2016,07,10,03,11,11.60
2016,07,10,03,12,11.60
2016,07,10,03,13,11.60
2016,07,10,03,14,11.50
2016,07,10,03,15,11.50
2016,07,10,03,16,11.50
2016,07,10,03,17,11.50
2016,07,10,03,18,11.50
2016,07,10,03,19,11.50
2016,07,10,03,20,11.50
2016,07,10,03,21,11.50
2016,07,10,03,22,11.50
2016,07,10,03,23,11.50
2016,07,10,03,24,11.50
2016,07,10,03,25,11.50
2016,07,10,03,26,11.50
2016,07,10,03,27,11.50
2016,07,10,03,28,11.50
2016,07,10,03,29,11.40
2016,07,10,03,30,11.40
2016,07,10,03,31,11.40
2016,07,10,03,32,11.40
2016,07,10,03,33,11.40
2016,07,10,03,34,11.40
2016,07,10,03,35,11.40
2016,07,10,03,36,11.40
2016,07,10,03,37,11.40
2016,07,10,03,38,11.40
2016,07,10,03,39,11.40
2016,07,10,03,40,11.40
2016,07,10,03,41,11.40
2016,07,10,03,42,11.40
2016,07,10,03,43,11.40
2016,07,10,03,44,11.40
2016,07,10,03,45,11.40
2016,07,10,03,46,11.40
2016,07,10,03,47,11.40
2016,07,10,03,48,11.40
2016,07,10,03,49,11.40
2016,07,10,03,50,11.40
2016,07,10,03,51,11.40
2016,07,10,03,52,11.30
2016,07,10,03,53,11.30
2016,07,10,03,54,11.30
2016,07,10,03,55,11.30
2016,07,10,03,56,11.30
2016,07,10,03,57,11.30
2016,07,10,03,58,11.30
2016,07,10,03,59,11.30
2016,07,10,04,00,11.30
2016,07,10,04,01,11.30
2016,07,10,04,02,11.30
2016,07,10,04,03,11.30
2016,07,10,04,04,11.30
2016,07,10,04,05,11.30
2016,07,10,04,06,11.30
2016,07,10,04,07,11.20
2016,07,10,04,08,11.20
2016,07,10,04,09,11.20
2016,07,10,04,10,11.20
2016,07,10,04,11,11.20
2016,07,10,04,12,11.20
2016,07,10,04,13,11.20
2016,07,10,04,14,11.20
2016,07,10,04,15,11.20
2016,07,10,04,16,11.20
2016,07,10,04,17,11.20
2016,07,10,04,18,11.20
2016,07,10,04,19,11.20
2016,07,10,04,20,11.20
2016,07,10,04,21,11.20
2016,07,10,04,22,11.20
2016,07,10,04,23,11.20
2016,07,10,04,24,11.20
2016,07,10,04,25,11.20
2016,07,10,04,26,11.30
2016,07,10,04,27,11.30
2016,07,10,04,28,11.30
2016,07,10,04,29,11.30
2016,07,10,04,30,11.30
2016,07,10,04,31,11.30
2016,07,10,04,32,11.30
2016,07,10,04,33,11.30
2016,07,10,04,34,11.30
2016,07,10,04,35,11.30
2016,07,10,04,36,11.30
2016,07,10,04,37,11.30
2016,07,10,04,38,11.20
2016,07,10,04,39,11.20
2016,07,10,04,40,11.20
2016,07,10,04,41,11.20
2016,07,10,04,42,11.20
2016,07,10,04,43,11.20
2016,07,10,04,44,11.20
2016,07,10,04,45,11.20
2016,07,10,04,46,11.10
2016,07,10,04,47,11.10
2016,07,10,04,48,11.10
2016,07,10,04,49,11.10
2016,07,10,04,50,11.10
2016,07,10,04,51,11.10
2016,07,10,04,52,11.10
2016,07,10,04,53,11.10
2016,07,10,04,54,11.00
2016,07,10,04,55,11.00
2016,07,10,04,56,11.00
2016,07,10,04,57,10.90
2016,07,10,04,58,10.90
2016,07,10,04,59,10.90
2016,07,10,05,00,10.90
2016,07,10,05,01,10.90
2016,07,10,05,02,10.90
2016,07,10,05,03,10.80
2016,07,10,05,04,10.80
2016,07,10,05,05,10.80
2016,07,10,05,06,10.80
2016,07,10,05,07,10.80
2016,07,10,05,08,10.80
2016,07,10,05,09,10.80
2016,07,10,05,10,10.80
2016,07,10,05,11,10.80
2016,07,10,05,12,10.80
2016,07,10,05,13,10.80
2016,07,10,05,14,10.80
2016,07,10,05,15,10.80
2016,07,10,05,16,10.80
2016,07,10,05,17,10.80
2016,07,10,05,18,10.80
2016,07,10,05,19,10.80
2016,07,10,05,20,10.80
2016,07,10,05,21,10.80
2016,07,10,05,22,10.80
2016,07,10,05,23,10.80
2016,07,10,05,24,10.80
2016,07,10,05,25,10.80
2016,07,10,05,26,10.80
2016,07,10,05,27,10.80
2016,07,10,05,28,10.80
2016,07,10,05,29,10.80
2016,07,10,05,30,10.80
2016,07,10,05,31,10.80
2016,07,10,05,32,10.80
2016,07,10,05,33,10.80
2016,07,10,05,34,10.80
2016,07,10,05,35,10.80
2016,07,10,05,36,10.80
2016,07,10,05,37,10.80
2016,07,10,05,38,10.80
2016,07,10,05,39,10.80
2016,07,10,05,40,10.80
2016,07,10,05,41,10.80
2016,07,10,05,42,10.90
2016,07,10,05,43,10.80
2016,07,10,05,44,10.90
2016,07,10,05,45,10.90
2016,07,10,05,46,10.90
2016,07,10,05,47,10.90
2016,07,10,05,48,10.90
2016,07,10,05,49,10.90
2016,07,10,05,50,10.90
2016,07,10,05,51,10.90
2016,07,10,05,52,10.90
2016,07,10,05,53,10.90
2016,07,10,05,54,10.90
2016,07,10,05,55,10.90
2016,07,10,05,56,11.00
2016,07,10,05,57,11.00
2016,07,10,05,58,11.00
2016,07,10,05,59,11.10
2016,07,10,06,00,11.10
2016,07,10,06,01,11.10
2016,07,10,06,02,11.10
2016,07,10,06,03,11.10
2016,07,10,06,04,11.10
2016,07,10,06,05,11.10
2016,07,10,06,06,11.20
2016,07,10,06,07,11.20
2016,07,10,06,08,11.20
2016,07,10,06,09,11.20
2016,07,10,06,10,11.20
2016,07,10,06,11,11.20
2016,07,10,06,12,11.20
2016,07,10,06,13,11.20
2016,07,10,06,14,11.20
2016,07,10,06,15,11.20
2016,07,10,06,16,11.20
2016,07,10,06,17,11.20
2016,07,10,06,18,11.20
2016,07,10,06,19,11.20
2016,07,10,06,20,11.20
2016,07,10,06,21,11.20
2016,07,10,06,22,11.20
2016,07,10,06,23,11.20
2016,07,10,06,24,11.20
2016,07,10,06,25,11.20
2016,07,10,06,26,11.20
2016,07,10,06,27,11.20
2016,07,10,06,28,11.20
2016,07,10,06,29,11.20
2016,07,10,06,30,11.20
2016,07,10,06,31,11.20
2016,07,10,06,32,11.20
2016,07,10,06,33,11.20
2016,07,10,06,34,11.20
2016,07,10,06,35,11.20
2016,07,10,06,36,11.20
2016,07,10,06,37,11.20
2016,07,10,06,38,11.20
2016,07,10,06,39,11.20
2016,07,10,06,40,11.20
2016,07,10,06,41,11.20
2016,07,10,06,42,11.30
2016,07,10,06,43,11.30
2016,07,10,06,44,11.30
2016,07,10,06,45,11.30
2016,07,10,06,46,11.30
2016,07,10,06,47,11.30
2016,07,10,06,48,11.30
2016,07,10,06,49,11.30
2016,07,10,06,50,11.30
2016,07,10,06,51,11.40
2016,07,10,06,52,11.40
2016,07,10,06,53,11.40
2016,07,10,06,54,11.40
2016,07,10,06,55,11.40
2016,07,10,06,56,11.40
2016,07,10,06,57,11.30
2016,07,10,06,58,11.30
2016,07,10,06,59,11.30
2016,07,10,07,00,11.30
2016,07,10,07,01,11.30
2016,07,10,07,02,11.30
2016,07,10,07,03,11.40
2016,07,10,07,04,11.40
2016,07,10,07,05,11.40
2016,07,10,07,06,11.40
2016,07,10,07,07,11.40
2016,07,10,07,08,11.40
2016,07,10,07,09,11.40
2016,07,10,07,10,11.30
2016,07,10,07,11,11.30
2016,07,10,07,12,11.30
2016,07,10,07,13,11.30
2016,07,10,07,14,11.30
2016,07,10,07,15,11.30
2016,07,10,07,16,11.30
2016,07,10,07,17,11.30
2016,07,10,07,18,11.40
2016,07,10,07,19,11.40
2016,07,10,07,20,11.40
2016,07,10,07,21,11.40
2016,07,10,07,22,11.40
2016,07,10,07,23,11.40
2016,07,10,07,24,11.40
2016,07,10,07,25,11.40
2016,07,10,07,26,11.40
2016,07,10,07,27,11.40
2016,07,10,07,28,11.40
2016,07,10,07,29,11.50
2016,07,10,07,30,11.40
2016,07,10,07,31,11.50
2016,07,10,07,32,11.50
2016,07,10,07,33,11.50
2016,07,10,07,34,11.60
2016,07,10,07,35,11.60
2016,07,10,07,36,11.60
2016,07,10,07,37,11.60
2016,07,10,07,38,11.60
2016,07,10,07,39,11.60
2016,07,10,07,40,11.60
2016,07,10,07,41,11.60
2016,07,10,07,42,11.60
2016,07,10,07,43,11.60
2016,07,10,07,44,11.60
2016,07,10,07,45,11.60
2016,07,10,07,46,11.60
2016,07,10,07,47,11.60
2016,07,10,07,48,11.60
2016,07,10,07,49,11.70
2016,07,10,07,50,11.70
2016,07,10,07,51,11.70
2016,07,10,07,52,11.70
2016,07,10,07,53,11.70
2016,07,10,07,54,11.70
2016,07,10,07,55,11.70
2016,07,10,07,56,11.70
2016,07,10,07,57,11.70
2016,07,10,07,58,11.70
2016,07,10,07,59,11.70
2016,07,10,08,00,11.70
2016,07,10,08,01,11.80
2016,07,10,08,02,11.80
2016,07,10,08,03,11.80
2016,07,10,08,04,11.80
2016,07,10,08,05,11.80
2016,07,10,08,06,11.80
2016,07,10,08,07,11.80
2016,07,10,08,08,11.80
2016,07,10,08,09,11.80
2016,07,10,08,10,11.80
2016,07,10,08,11,11.80
2016,07,10,08,12,11.80
2016,07,10,08,13,11.90
2016,07,10,08,14,11.90
2016,07,10,08,15,11.90
2016,07,10,08,16,11.90
2016,07,10,08,17,11.90
2016,07,10,08,18,12.00
2016,07,10,08,19,12.00
2016,07,10,08,20,12.10
2016,07,10,08,21,12.10
2016,07,10,08,22,12.10
2016,07,10,08,23,12.20
2016,07,10,08,24,12.20
2016,07,10,08,25,12.20
2016,07,10,08,26,12.20
2016,07,10,08,27,12.20
2016,07,10,08,28,12.20
2016,07,10,08,29,12.20
2016,07,10,08,30,12.30
2016,07,10,08,31,12.30
2016,07,10,08,32,12.30
2016,07,10,08,33,12.30
2016,07,10,08,34,12.30
2016,07,10,08,35,12.30
2016,07,10,08,36,12.30
2016,07,10,08,37,12.40
2016,07,10,08,38,12.40
2016,07,10,08,39,12.50
2016,07,10,08,40,12.60
2016,07,10,08,41,12.60
2016,07,10,08,42,12.70
2016,07,10,08,43,12.70
2016,07,10,08,44,12.70
2016,07,10,08,45,12.70
2016,07,10,08,46,12.70
2016,07,10,08,47,12.70
2016,07,10,08,48,12.80
2016,07,10,08,49,12.80
2016,07,10,08,50,12.80
2016,07,10,08,51,12.80
2016,07,10,08,52,12.80
2016,07,10,08,53,12.80
2016,07,10,08,54,12.80
2016,07,10,08,55,12.90
2016,07,10,08,56,12.90
2016,07,10,08,57,12.90
2016,07,10,08,58,13.00
2016,07,10,08,59,13.00
2016,07,10,09,00,13.10
2016,07,10,09,01,13.10
2016,07,10,09,02,13.20
2016,07,10,09,03,13.20
2016,07,10,09,04,13.20
2016,07,10,09,05,13.30
2016,07,10,09,06,13.30
2016,07,10,09,07,13.40
2016,07,10,09,08,13.50
2016,07,10,09,09,13.60
2016,07,10,09,10,13.70
2016,07,10,09,11,13.70
2016,07,10,09,12,13.80
2016,07,10,09,13,13.80
2016,07,10,09,14,13.90
2016,07,10,09,15,13.90
2016,07,10,09,16,14.00
2016,07,10,09,17,14.10
2016,07,10,09,18,14.20
2016,07,10,09,19,14.20
2016,07,10,09,20,14.30
2016,07,10,09,21,14.40
2016,07,10,09,22,14.40
2016,07,10,09,23,14.50
2016,07,10,09,24,14.60
2016,07,10,09,25,14.60
2016,07,10,09,26,14.70
2016,07,10,09,27,14.70
2016,07,10,09,28,14.80
2016,07,10,09,29,14.90
2016,07,10,09,30,15.00
2016,07,10,09,31,15.10
2016,07,10,09,32,15.20
2016,07,10,09,33,15.20
2016,07,10,09,34,15.30
2016,07,10,09,35,15.30
2016,07,10,09,36,15.40
2016,07,10,09,37,15.50
2016,07,10,09,38,15.60
2016,07,10,09,39,15.60
2016,07,10,09,40,15.60
2016,07,10,09,41,15.60
2016,07,10,09,42,15.60
2016,07,10,09,43,15.60
2016,07,10,09,44,15.70
2016,07,10,09,45,15.70
2016,07,10,09,46,15.70
2016,07,10,09,47,15.80
2016,07,10,09,48,15.80
2016,07,10,09,49,15.80
2016,07,10,09,50,15.80
2016,07,10,09,51,15.80
2016,07,10,09,52,15.80
2016,07,10,09,53,15.80
2016,07,10,09,54,15.80
2016,07,10,09,55,15.80
2016,07,10,09,56,15.80
2016,07,10,09,57,15.80
2016,07,10,09,58,15.80
2016,07,10,09,59,15.80
2016,07,10,10,00,15.90
2016,07,10,10,01,15.90
2016,07,10,10,02,16.00
2016,07,10,10,03,16.10
2016,07,10,10,04,16.20
2016,07,10,10,05,16.30
2016,07,10,10,06,16.40
2016,07,10,10,07,16.50
2016,07,10,10,08,16.60
2016,07,10,10,09,16.70
2016,07,10,10,10,16.70
2016,07,10,10,11,16.70
2016,07,10,10,12,16.70
2016,07,10,10,13,16.70
2016,07,10,10,14,16.80
2016,07,10,10,15,16.80
2016,07,10,10,16,16.90
2016,07,10,10,17,17.00
2016,07,10,10,18,17.10
2016,07,10,10,19,17.10
2016,07,10,10,20,17.20
2016,07,10,10,21,17.30
2016,07,10,10,22,17.30
2016,07,10,10,23,17.40
2016,07,10,10,24,17.40
2016,07,10,10,25,17.50
2016,07,10,10,26,17.50
2016,07,10,10,27,17.60
2016,07,10,10,28,17.70
2016,07,10,10,29,17.80
2016,07,10,10,30,17.80
2016,07,10,10,31,17.90
2016,07,10,10,32,17.90
2016,07,10,10,33,18.00
2016,07,10,10,34,18.10
2016,07,10,10,35,18.10
2016,07,10,10,36,18.20
2016,07,10,10,37,18.30
2016,07,10,10,38,18.40
2016,07,10,10,39,18.50
2016,07,10,10,40,18.60
2016,07,10,10,41,18.70
2016,07,10,10,42,18.70
2016,07,10,10,43,18.70
2016,07,10,10,44,18.80
2016,07,10,10,45,18.90
2016,07,10,10,46,18.90
2016,07,10,10,47,19.00
2016,07,10,10,48,19.00
2016,07,10,10,49,19.00
2016,07,10,10,50,19.00
2016,07,10,10,51,19.10
2016,07,10,10,52,19.10
2016,07,10,10,53,19.10
2016,07,10,10,54,19.10
2016,07,10,10,55,19.20
2016,07,10,10,56,19.20
2016,07,10,10,57,19.30
2016,07,10,10,58,19.40
2016,07,10,10,59,19.60
2016,07,10,11,00,19.70
2016,07,10,11,01,19.70
2016,07,10,11,02,19.80
2016,07,10,11,03,19.80
2016,07,10,11,04,19.80
2016,07,10,11,05,19.80
2016,07,10,11,06,19.80
2016,07,10,11,07,19.80
2016,07,10,11,08,19.80
2016,07,10,11,09,19.80
2016,07,10,11,10,19.80
2016,07,10,11,11,19.80
2016,07,10,11,12,19.90
2016,07,10,11,13,20.10
2016,07,10,11,14,20.10
2016,07,10,11,15,20.20
2016,07,10,11,16,20.30
2016,07,10,11,17,20.40
2016,07,10,11,18,20.60
2016,07,10,11,19,20.60
2016,07,10,11,20,20.70
2016,07,10,11,21,20.80
2016,07,10,11,22,20.90
2016,07,10,11,23,21.00
2016,07,10,11,24,21.10
2016,07,10,11,25,21.20
2016,07,10,11,26,21.20
2016,07,10,11,27,21.30
2016,07,10,11,28,21.40
2016,07,10,11,29,21.40
2016,07,10,11,30,21.50
2016,07,10,11,31,21.60
2016,07,10,11,32,21.60
2016,07,10,11,33,21.70
2016,07,10,11,34,21.70
2016,07,10,11,35,21.70
2016,07,10,11,36,21.80
2016,07,10,11,37,21.80
2016,07,10,11,38,21.90
2016,07,10,11,39,21.90
2016,07,10,11,40,21.80
2016,07,10,11,41,21.70
2016,07,10,11,42,21.70
2016,07,10,11,43,21.50
2016,07,10,11,44,21.40
2016,07,10,11,45,21.30
2016,07,10,11,46,21.20
2016,07,10,11,47,21.10
2016,07,10,11,48,21.10
2016,07,10,11,49,21.10
2016,07,10,11,50,21.10
2016,07,10,11,51,21.10
2016,07,10,11,52,21.10
2016,07,10,11,53,21.10
2016,07,10,11,54,21.10
2016,07,10,11,55,21.10
2016,07,10,11,56,21.10
2016,07,10,11,57,21.20
2016,07,10,11,58,21.20
2016,07,10,11,59,21.20
2016,07,10,12,00,21.20
2016,07,10,12,01,21.20
2016,07,10,12,02,21.30
2016,07,10,12,03,21.20
2016,07,10,12,04,21.20
2016,07,10,12,05,21.20
2016,07,10,12,06,21.20
2016,07,10,12,07,21.30
2016,07,10,12,08,21.30
2016,07,10,12,09,21.30
2016,07,10,12,10,21.30
2016,07,10,12,11,21.30
2016,07,10,12,12,21.30
2016,07,10,12,13,21.40
2016,07,10,12,14,21.40
2016,07,10,12,15,21.40
2016,07,10,12,16,21.50
2016,07,10,12,17,21.40
2016,07,10,12,18,21.40
2016,07,10,12,19,21.40
2016,07,10,12,20,21.40
2016,07,10,12,21,21.40
2016,07,10,12,22,21.40
2016,07,10,12,23,21.50
2016,07,10,12,24,21.50
2016,07,10,12,25,21.60
2016,07,10,12,26,21.70
2016,07,10,12,27,21.70
2016,07,10,12,28,21.70
2016,07,10,12,29,21.70
2016,07,10,12,30,21.70
2016,07,10,12,31,21.70
2016,07,10,12,32,21.80
2016,07,10,12,33,21.80
2016,07,10,12,34,21.80
2016,07,10,12,35,21.90
2016,07,10,12,36,21.90
2016,07,10,12,37,22.00
2016,07,10,12,38,22.10
2016,07,10,12,39,22.10
2016,07,10,12,40,22.10
2016,07,10,12,41,22.10
2016,07,10,12,42,22.10
2016,07,10,12,43,22.20
2016,07,10,12,44,22.20
2016,07,10,12,45,22.20
2016,07,10,12,46,22.20
2016,07,10,12,47,22.20
2016,07,10,12,48,22.20
2016,07,10,12,49,22.30
2016,07,10,12,50,22.30
2016,07,10,12,51,22.30
2016,07,10,12,52,22.30
2016,07,10,12,53,22.30
2016,07,10,12,54,22.30
2016,07,10,12,55,22.30
2016,07,10,12,56,22.30
2016,07,10,12,57,22.40
2016,07,10,12,58,22.40
2016,07,10,12,59,22.40
2016,07,10,13,00,22.40
2016,07,10,13,01,22.30
2016,07,10,13,02,22.30
2016,07,10,13,03,22.30
2016,07,10,13,04,22.30
2016,07,10,13,05,22.30
2016,07,10,13,06,22.40
2016,07,10,13,07,22.40
2016,07,10,13,08,22.50
2016,07,10,13,09,22.50
2016,07,10,13,10,22.50
2016,07,10,13,11,22.60
2016,07,10,13,12,22.60
2016,07,10,13,13,22.60
2016,07,10,13,14,22.60
2016,07,10,13,15,22.60
2016,07,10,13,16,22.60
2016,07,10,13,17,22.50
2016,07,10,13,18,22.40
2016,07,10,13,19,22.40
2016,07,10,13,20,22.40
2016,07,10,13,21,22.40
2016,07,10,13,22,22.40
2016,07,10,13,23,22.50
2016,07,10,13,24,22.60
2016,07,10,13,25,22.60
2016,07,10,13,26,22.60
2016,07,10,13,27,22.60
2016,07,10,13,28,22.60
2016,07,10,13,29,22.60
2016,07,10,13,30,22.60
2016,07,10,13,31,22.50
2016,07,10,13,32,22.50
2016,07,10,13,33,22.40
2016,07,10,13,34,22.50
2016,07,10,13,35,22.60
2016,07,10,13,36,22.60
2016,07,10,13,37,22.70
2016,07,10,13,38,22.70
2016,07,10,13,39,22.70
2016,07,10,13,40,22.70
2016,07,10,13,41,22.70
2016,07,10,13,42,22.70
2016,07,10,13,43,22.70
2016,07,10,13,44,22.70
2016,07,10,13,45,22.70
2016,07,10,13,46,22.70
2016,07,10,13,47,22.70
2016,07,10,13,48,22.70
2016,07,10,13,49,22.70
2016,07,10,13,50,22.70
2016,07,10,13,51,22.70
2016,07,10,13,52,22.70
2016,07,10,13,53,22.70
2016,07,10,13,54,22.70
2016,07,10,13,55,22.70
2016,07,10,13,56,22.70
2016,07,10,13,57,22.70
2016,07,10,13,58,22.70
2016,07,10,13,59,22.60
2016,07,10,14,00,22.60
2016,07,10,14,01,22.60
2016,07,10,14,02,22.70
2016,07,10,14,03,22.80
2016,07,10,14,04,22.90
2016,07,10,14,05,23.00
2016,07,10,14,06,23.10
2016,07,10,14,07,23.20
2016,07,10,14,08,23.30
2016,07,10,14,09,23.30
2016,07,10,14,10,23.30
2016,07,10,14,11,23.30
2016,07,10,14,12,23.20
2016,07,10,14,13,23.10
2016,07,10,14,14,22.90
2016,07,10,14,15,22.80
2016,07,10,14,16,22.70
2016,07,10,14,17,22.60
2016,07,10,14,18,22.40
2016,07,10,14,19,22.30
2016,07,10,14,20,22.20
2016,07,10,14,21,22.20
2016,07,10,14,22,22.20
2016,07,10,14,23,22.10
2016,07,10,14,24,22.10
2016,07,10,14,25,22.00
2016,07,10,14,26,21.90
2016,07,10,14,27,21.90
2016,07,10,14,28,21.80
2016,07,10,14,29,21.80
2016,07,10,14,30,21.80
2016,07,10,14,31,21.80
2016,07,10,14,32,21.80
2016,07,10,14,33,21.70
2016,07,10,14,34,21.70
2016,07,10,14,35,21.60
2016,07,10,14,36,21.50
2016,07,10,14,37,21.40
2016,07,10,14,38,21.40
2016,07,10,14,39,21.40
2016,07,10,14,40,21.30
2016,07,10,14,41,21.30
2016,07,10,14,42,21.30
2016,07,10,14,43,21.30
2016,07,10,14,44,21.30
2016,07,10,14,45,21.30
2016,07,10,14,46,21.30
2016,07,10,14,47,21.40
2016,07,10,14,48,21.40
2016,07,10,14,49,21.40
2016,07,10,14,50,21.40
2016,07,10,14,51,21.40
2016,07,10,14,52,21.30
2016,07,10,14,53,21.30
2016,07,10,14,54,21.20
2016,07,10,14,55,21.20
2016,07,10,14,56,21.20
2016,07,10,14,57,21.20
2016,07,10,14,58,21.20
2016,07,10,14,59,21.20
2016,07,10,15,00,21.20
2016,07,10,15,01,21.20
2016,07,10,15,02,21.30
2016,07,10,15,03,21.30
2016,07,10,15,04,21.30
2016,07,10,15,05,21.30
2016,07,10,15,06,21.40
2016,07,10,15,07,21.40
2016,07,10,15,08,21.40
2016,07,10,15,09,21.50
2016,07,10,15,10,21.60
2016,07,10,15,11,21.60
2016,07,10,15,12,21.60
2016,07,10,15,13,21.70
2016,07,10,15,14,21.70
2016,07,10,15,15,21.70
2016,07,10,15,16,21.70
2016,07,10,15,17,21.70
2016,07,10,15,18,21.70
2016,07,10,15,19,21.70
2016,07,10,15,20,21.70
2016,07,10,15,21,21.70
2016,07,10,15,22,21.70
2016,07,10,15,23,21.70
2016,07,10,15,24,21.70
2016,07,10,15,25,21.70
2016,07,10,15,26,21.70
2016,07,10,15,27,21.70
2016,07,10,15,28,21.70
2016,07,10,15,29,21.70
2016,07,10,15,30,21.70
2016,07,10,15,31,21.70
2016,07,10,15,32,21.70
2016,07,10,15,33,21.60
2016,07,10,15,34,21.60
2016,07,10,15,35,21.60
2016,07,10,15,36,21.60
2016,07,10,15,37,21.60
2016,07,10,15,38,21.60
2016,07,10,15,39,21.60
2016,07,10,15,40,21.60
2016,07,10,15,41,21.70
2016,07,10,15,42,21.70
2016,07,10,15,43,21.60
2016,07,10,15,44,21.60
2016,07,10,15,45,21.70
2016,07,10,15,46,21.70
2016,07,10,15,47,21.70
2016,07,10,15,48,21.70
2016,07,10,15,49,21.70
2016,07,10,15,50,21.70
2016,07,10,15,51,21.70
2016,07,10,15,52,21.70
2016,07,10,15,53,21.70
2016,07,10,15,54,21.80
2016,07,10,15,55,21.80
2016,07,10,15,56,21.80
2016,07,10,15,57,21.80
2016,07,10,15,58,21.80
2016,07,10,15,59,21.80
2016,07,10,16,00,21.80
2016,07,10,16,01,21.80
2016,07,10,16,02,21.80
2016,07,10,16,03,21.80
2016,07,10,16,04,21.80
2016,07,10,16,05,21.80
2016,07,10,16,06,21.80
2016,07,10,16,07,21.80
2016,07,10,16,08,21.80
2016,07,10,16,09,21.70
2016,07,10,16,10,21.70
2016,07,10,16,11,21.70
2016,07,10,16,12,21.60
2016,07,10,16,13,21.60
2016,07,10,16,14,21.60
2016,07,10,16,15,21.50
2016,07,10,16,16,21.50
2016,07,10,16,17,21.40
2016,07,10,16,18,21.40
2016,07,10,16,19,21.40
2016,07,10,16,20,21.40
2016,07,10,16,21,21.40
2016,07,10,16,22,21.40
2016,07,10,16,23,21.40
2016,07,10,16,24,21.30
2016,07,10,16,25,21.30
2016,07,10,16,26,21.30
2016,07,10,16,27,21.30
2016,07,10,16,28,21.40
2016,07,10,16,29,21.40
2016,07,10,16,30,21.40
2016,07,10,16,31,21.40
2016,07,10,16,32,21.40
2016,07,10,16,33,21.40
2016,07,10,16,34,21.40
2016,07,10,16,35,21.50
2016,07,10,16,36,21.60
2016,07,10,16,37,21.60
2016,07,10,16,38,21.60
2016,07,10,16,39,21.50
2016,07,10,16,40,21.50
2016,07,10,16,41,21.40
2016,07,10,16,42,21.30
2016,07,10,16,43,21.30
2016,07,10,16,44,21.30
2016,07,10,16,45,21.20
2016,07,10,16,46,21.20
2016,07,10,16,47,21.20
2016,07,10,16,48,21.20
2016,07,10,16,49,21.10
2016,07,10,16,50,21.10
2016,07,10,16,51,21.10
2016,07,10,16,52,21.10
2016,07,10,16,53,21.00
2016,07,10,16,54,20.90
2016,07,10,16,55,20.90
2016,07,10,16,56,20.90
2016,07,10,16,57,20.80
2016,07,10,16,58,20.80
2016,07,10,16,59,20.80
2016,07,10,17,00,20.80
2016,07,10,17,01,20.80
2016,07,10,17,02,20.90
2016,07,10,17,03,20.90
2016,07,10,17,04,20.80
2016,07,10,17,05,20.80
2016,07,10,17,06,20.80
2016,07,10,17,07,20.80
2016,07,10,17,08,20.80
2016,07,10,17,09,20.80
2016,07,10,17,10,20.80
2016,07,10,17,11,20.70
2016,07,10,17,12,20.70
2016,07,10,17,13,20.70
2016,07,10,17,14,20.70
2016,07,10,17,15,20.70
2016,07,10,17,16,20.70
2016,07,10,17,17,20.70
2016,07,10,17,18,20.70
2016,07,10,17,19,20.70